Theta_e
321 315 310 309 310 310 310 312 313 313 313 312 312 310 308 308 308 313 311 311 314 315 314 313 311 311 310 311 314 312 313 312 311 312 314 314 314 313 313 312 313 313 316 317 316 315 314 314 315 316 318 317 315 315
322 316 310 309 311 310 311 313 314 314 313 313 311 310 309 309 308 312 315 310 311 314 315 313 312 311 311 311 312 312 312 311 311 312 312 313 312 312 312 315 310 314 311 313 314 314 312 314 313 313 313 314 313 313
321 316 310 309 312 310 311 314 315 314 313 313 310 309 309 309 309 311 314 313 313 315 316 315 315 312 311 311 310 312 312 311 311 311 310 312 312 311 312 311 311 310 307 310 311 311 312 312 312 313 312 312 312 312
321 314 309 310 312 310 311 314 315 314 313 313 313 311 310 309 309 310 315 314 314 315 317 317 314 314 311 312 311 311 311 311 311 310 310 312 312 310 311 310 309 308 306 309 310 310 307 311 308 309 309 310 311 311
321 313 309 310 312 311 310 313 315 316 315 313 313 313 313 312 312 312 314 314 314 314 318 317 315 315 313 313 312 312 312 311 311 312 312 312 309 309 308 309 309 304 304 307 308 304 304 305 307 307 308 309 309 311
320 311 309 311 311 311 310 311 315 316 316 316 314 313 313 312 313 313 316 315 314 314 315 318 317 315 313 313 313 312 312 311 311 310 310 309 309 309 311 310 308 306 305 304 304 304 304 304 305 306 306 307 308 309
317 309 309 310 311 311 311 310 312 315 316 316 316 315 314 313 313 314 315 314 313 313 314 318 317 317 315 313 312 310 311 311 311 311 310 310 310 308 311 311 308 307 306 306 305 305 304 303 303 303 304 305 307 309
311 308 309 310 310 311 312 311 311 312 314 315 315 315 314 313 314 314 314 314 313 313 314 317 318 318 315 314 312 309 308 308 312 312 311 310 311 310 311 309 308 309 308 307 306 305 304 302 302 301 302 304 306 309
308 309 309 310 310 311 312 311 310 312 313 313 313 313 313 313 314 315 314 313 311 312 314 314 321 318 316 315 310 308 308 312 311 314 313 311 312 310 311 308 308 308 308 307 306 305 305 304 301 300 300 301 303 305
308 309 309 310 310 311 312 311 311 313 315 313 313 314 315 315 315 314 311 312 312 313 312 314 317 317 317 316 313 311 309 313 315 314 312 314 313 310 308 308 308 307 307 308 307 306 305 305 303 301 300 300 301 302
308 309 309 309 310 311 312 314 314 314 314 315 318 319 318 316 313 313 315 316 317 316 316 316 316 316 316 318 318 314 314 314 316 315 313 314 313 309 308 307 307 307 307 307 307 306 306 305 305 304 303 301 301 301
309 309 309 310 310 311 312 315 314 314 319 319 319 317 315 313 315 318 322 321 321 320 318 318 316 316 315 317 317 315 315 315 315 312 312 314 313 309 308 308 307 307 308 307 307 307 306 306 306 305 305 303 301 301
309 309 310 310 313 312 312 316 315 313 313 318 318 318 318 321 320 322 321 320 320 317 315 313 316 317 317 316 316 315 315 316 313 314 314 313 311 309 309 308 306 307 307 306 305 306 305 305 306 306 305 305 304 302
309 310 310 311 312 312 314 317 317 314 314 321 322 321 323 323 321 321 319 324 319 317 316 312 315 318 315 315 314 316 316 313 313 314 313 313 311 309 307 307 307 307 306 305 305 305 305 304 305 305 304 304 305 305
310 310 310 313 312 313 313 314 315 312 318 322 322 325 322 321 319 321 320 321 318 316 313 314 316 311 314 314 313 312 312 313 314 313 312 311 310 308 307 307 306 307 306 305 305 305 305 304 304 305 304 304 304 305
310 311 314 314 313 313 313 312 312 313 320 322 322 322 321 322 321 321 319 319 316 316 315 314 314 314 314 313 312 312 312 313 313 311 310 310 309 308 307 306 306 306 306 305 304 304 304 304 304 304 304 304 304 304
310 316 314 315 315 314 313 316 318 320 322 323 322 321 321 322 321 320 319 318 316 314 316 314 314 314 313 313 313 314 314 312 310 310 309 309 308 307 306 306 306 306 306 305 304 305 304 304 304 304 304 305 304 305
312 312 312 317 315 316 314 314 321 322 323 323 322 322 322 321 319 317 316 315 315 315 315 314 313 315 314 315 315 314 310 310 310 309 308 309 308 306 305 305 305 305 306 305 305 304 304 303 303 303 304 304 304 304
311 311 314 317 319 320 321 323 322 324 323 324 322 323 322 322 319 317 317 316 315 315 315 315 315 315 315 314 311 310 309 309 307 308 309 307 306 304 304 305 305 305 304 304 303 303 303 303 303 302 303 304 303 303
311 312 318 317 319 322 323 323 325 325 325 323 323 323 323 320 318 317 316 316 316 316 315 314 314 313 312 311 309 310 308 307 307 307 307 306 305 304 305 304 304 303 304 304 304 301 302 303 303 302 301 302 303 303
311 315 313 318 317 319 322 324 324 324 322 323 325 324 322 320 319 318 317 317 314 313 313 312 312 311 311 309 308 308 309 306 307 306 304 304 303 304 304 304 303 303 303 303 303 303 302 303 302 303 303 303 303 302
317 313 322 320 324 326 326 326 325 324 325 323 322 322 321 320 319 317 317 315 313 312 311 311 310 310 310 309 309 309 310 308 308 307 304 304 304 303 304 303 302 302 303 302 302 303 302 302 302 303 302 303 302 301
311 318 323 325 327 327 324 324 325 323 323 322 321 321 319 319 319 318 316 314 312 311 311 310 310 312 312 312 313 312 311 309 309 307 305 304 304 304 303 302 302 301 301 302 302 302 303 300 301 301 302 302 302 302
314 323 325 326 326 326 325 324 323 323 322 321 320 321 320 319 318 316 316 314 312 312 313 312 312 311 311 311 310 309 308 306 306 306 305 304 304 303 301 300 300 300 300 301 301 301 302 301 300 301 301 302 302 302
321 320 322 319 323 324 324 322 322 321 322 322 321 320 319 319 318 316 315 314 312 312 312 312 312 311 311 309 307 307 306 304 304 305 303 303 302 302 301 300 299 298 299 300 300 301 301 301 301 301 301 301 301 301
316 319 321 323 324 325 323 322 322 322 322 323 322 321 319 319 317 316 315 314 313 313 312 312 311 309 308 306 305 304 303 303 304 303 302 302 301 301 300 300 300 299 299 300 301 301 302 302 302 301 300 299 299 300
318 321 323 325 325 324 324 323 323 322 323 323 323 323 320 318 317 317 316 315 314 313 311 309 307 306 305 305 304 303 302 302 302 302 301 300 300 299 300 300 300 299 299 300 300 301 301 301 300 301 301 301 300 300
321 323 325 324 324 325 325 325 324 323 323 323 323 323 321 319 319 318 317 315 312 310 307 306 305 304 304 303 303 303 302 302 301 301 301 300 299 299 300 299 298 298 298 299 300 300 300 301 301 301 300 300 299 299
321 322 324 325 325 326 326 325 324 322 322 323 324 324 322 320 320 318 316 313 310 308 306 305 304 304 303 302 301 300 302 302 303 303 302 301 300 300 300 300 300 300 299 298 297 299 300 299 299 300 299 299 299 299
321 323 324 324 325 326 326 324 324 324 324 324 324 322 321 320 318 317 314 312 311 310 307 305 304 304 304 303 301 301 301 301 301 302 302 301 299 300 300 300 300 300 300 299 299 299 298 299 299 299 298 298 298 298
323 324 325 325 324 325 325 326 325 325 325 325 324 323 323 320 315 313 313 312 311 309 307 305 304 304 303 302 302 302 301 300 300 300 299 299 299 300 299 300 300 300 299 299 299 299 299 298 298 298 298 298 298 298
324 325 324 325 326 328 326 326 326 326 325 326 326 325 323 320 318 314 313 312 311 309 307 305 304 303 301 301 301 301 300 300 299 299 299 299 299 299 299 299 299 299 299 299 299 299 298 298 298 298 298 298 298 297
324 324 324 324 324 327 327 326 327 326 326 325 326 325 324 323 322 317 312 312 310 310 308 306 304 302 301 301 300 299 300 300 299 298 298 298 298 299 299 299 299 298 298 298 298 299 299 299 299 298 298 298 297 298
Wind_Speed
17 14 17 20 21 19 17 18 14 11 12 7 6 6 7 7 6 10 1 4 5 4 7 5 3 1 2 6 5 11 4 1 6 3 4 3 3 3 1 3 8 5 5 9 12 16 19 9 7 8 8 9 13 14
17 13 16 19 19 16 16 16 12 8 11 6 5 5 7 5 4 8 3 4 2 1 4 1 2 0 2 3 1 5 5 6 5 3 3 3 2 3 6 3 6 3 4 5 6 7 2 1 7 14 15 12 13 16
15 13 16 17 17 14 14 15 10 7 6 5 5 5 6 4 2 3 1 3 4 4 5 4 4 2 1 1 4 2 4 4 3 4 6 3 2 2 3 2 5 3 7 4 12 12 12 10 14 9 7 13 17 18
14 12 15 16 14 12 11 13 9 6 5 3 4 3 2 1 0 1 1 6 4 8 5 4 3 2 3 2 3 3 2 4 5 8 6 1 1 6 2 6 1 2 8 5 7 17 22 4 14 14 17 18 20 20
13 12 14 15 13 11 9 11 8 6 5 3 2 2 2 1 3 2 2 5 3 4 7 1 4 5 3 4 3 2 3 4 3 4 4 1 1 1 3 3 0 2 3 3 4 19 16 20 16 18 17 18 20 21
11 11 14 13 12 10 9 9 8 6 5 4 3 3 4 4 5 3 2 2 3 4 6 2 5 7 7 6 5 4 4 5 7 5 1 1 1 2 2 2 1 4 5 9 7 15 14 17 17 13 17 20 20 20
9 11 12 11 11 11 9 9 7 7 6 6 5 4 6 7 6 3 2 4 7 5 4 5 4 5 8 6 4 7 5 6 6 4 4 1 5 5 3 3 7 5 4 5 11 16 15 16 17 17 16 17 16 17
9 11 12 11 11 11 11 9 8 7 7 8 7 6 7 8 9 7 7 7 9 4 5 3 5 7 10 6 5 5 4 8 6 5 6 5 4 2 2 10 12 5 6 6 7 9 9 22 18 19 17 18 15 11
9 11 11 10 11 12 11 9 8 7 8 7 7 8 8 2 3 7 11 11 6 5 3 4 3 4 9 5 4 5 6 4 7 4 4 2 2 2 6 8 11 11 8 9 7 11 14 15 24 21 22 21 22 18
9 10 11 10 11 11 10 7 6 6 8 7 4 2 2 4 7 12 2 3 4 5 6 5 8 6 9 10 8 6 5 3 3 5 2 3 3 5 2 5 7 9 11 10 11 12 15 15 16 24 24 22 19 17
9 10 11 11 12 11 8 6 5 6 6 2 3 3 7 10 5 3 4 6 7 4 8 8 10 8 4 3 4 8 4 3 3 4 2 2 2 4 6 6 7 7 8 9 9 10 10 12 14 13 18 23 19 16
9 11 12 13 14 12 8 5 5 5 2 6 5 3 8 2 4 6 5 6 6 3 4 10 3 7 3 2 4 6 3 2 2 4 2 1 2 3 5 8 8 7 8 9 10 9 12 11 11 13 12 14 20 19
8 10 13 15 11 8 7 5 4 6 6 4 2 3 3 5 3 6 3 1 2 6 1 12 14 11 3 0 2 1 3 4 5 3 2 2 3 5 5 7 9 7 6 9 8 9 11 12 11 10 13 11 12 19
8 10 13 11 4 4 8 6 6 7 1 4 7 4 5 5 2 1 6 11 9 5 6 3 13 7 5 2 2 3 5 2 1 1 3 4 5 7 6 6 7 7 8 9 11 10 11 12 13 11 11 11 11 11
8 11 12 5 1 3 7 10 10 6 2 5 3 4 6 13 28 10 1 4 8 4 4 9 5 4 5 1 3 3 3 2 2 1 3 6 5 6 8 9 9 6 5 10 11 10 10 11 12 11 9 8 10 10
10 10 2 5 10 13 11 8 5 4 3 4 6 11 9 10 11 17 14 12 6 4 5 4 3 2 1 2 2 3 4 3 4 8 11 5 5 6 7 9 8 8 6 5 9 10 10 10 10 10 9 8 8 9
9 2 8 9 8 5 3 2 2 4 5 5 6 9 13 12 13 8 11 8 6 7 5 3 1 3 3 3 4 5 4 5 8 5 5 6 7 6 9 10 9 7 4 4 8 8 7 8 8 8 8 7 7 8
6 10 8 7 5 3 1 4 3 5 7 3 11 6 13 9 10 10 10 9 8 6 3 2 2 3 3 4 4 5 9 5 6 7 4 5 3 6 10 10 9 3 3 4 8 7 6 8 7 9 9 7 7 9
11 11 8 2 1 2 2 3 4 4 5 8 8 8 10 7 5 5 5 7 8 7 3 1 2 2 3 5 8 7 7 7 9 6 3 2 2 4 6 6 5 4 4 4 5 5 5 6 8 8 9 7 9 8
5 7 2 5 5 1 3 3 3 5 6 7 9 9 4 4 6 4 2 5 6 6 3 3 5 5 3 5 5 5 8 9 9 9 0 3 5 2 4 4 4 8 6 5 2 1 4 3 3 6 7 7 7 8
7 5 6 3 2 5 4 4 3 3 7 6 6 5 2 4 5 5 4 4 5 6 7 4 5 7 6 7 8 7 4 8 11 9 11 11 11 8 7 8 6 10 14 10 3 2 3 2 5 5 6 4 6 8
7 7 1 3 3 4 4 3 5 7 3 2 5 1 2 3 3 5 6 7 7 8 7 8 7 6 2 5 6 6 6 7 7 7 5 6 9 9 6 10 17 11 8 9 5 3 4 4 4 6 4 6 5 6
8 1 2 4 4 3 3 2 3 3 3 6 1 2 3 3 3 1 2 3 4 5 4 5 3 5 6 7 2 5 3 7 9 5 8 9 6 8 11 12 7 8 8 7 9 4 3 2 2 3 4 8 4 3
2 2 3 4 6 3 2 3 1 1 2 4 3 2 4 5 4 2 2 5 3 3 1 4 7 10 5 7 5 3 8 10 10 2 5 4 5 7 7 8 7 7 8 6 6 5 4 4 1 2 0 2 4 5
3 3 4 4 4 4 4 3 2 2 2 2 2 2 4 1 2 1 2 4 4 3 4 4 7 8 8 8 9 5 7 8 8 6 5 3 5 2 3 4 7 7 6 6 6 7 6 1 1 4 3 5 5 4
2 6 6 5 6 4 1 2 2 2 2 2 2 2 1 3 2 3 4 7 6 6 6 7 9 10 6 6 7 7 7 6 4 4 4 5 5 5 5 5 6 8 7 7 7 7 7 9 6 6 6 4 2 2
3 6 6 5 2 1 3 2 4 4 2 2 0 0 1 2 3 3 2 2 4 3 3 4 5 5 4 3 3 4 5 5 5 5 4 5 5 5 4 6 6 3 4 6 6 7 6 5 4 4 4 4 5 4
6 3 7 10 5 4 3 3 3 3 2 2 2 2 2 2 3 2 2 2 2 2 1 1 1 2 2 3 2 2 4 5 7 7 7 6 5 5 5 6 6 6 5 3 5 4 5 3 4 4 5 5 4 4
6 7 7 5 5 3 4 4 4 1 2 3 2 4 1 1 1 4 5 5 4 3 2 2 2 2 3 4 4 2 2 3 2 1 1 3 4 4 4 4 4 5 4 5 3 4 5 6 4 5 5 5 4 3
7 9 7 6 6 4 5 3 5 3 3 4 3 1 1 2 4 6 7 7 6 3 2 3 3 2 0 0 2 3 3 2 1 2 3 3 4 4 4 4 3 3 3 4 3 4 5 4 4 4 5 5 5 5
6 10 8 7 6 2 1 3 5 5 5 5 5 7 5 4 5 7 8 8 7 6 4 4 4 2 1 2 2 3 3 3 4 5 6 6 6 5 4 4 3 3 3 3 2 2 3 3 3 4 5 6 6 6
8 8 7 6 5 6 2 3 4 6 5 5 6 6 4 4 6 6 9 11 10 8 7 6 5 4 5 5 5 5 9 6 5 6 6 5 6 6 5 4 4 4 3 3 2 2 2 4 4 4 5 6 6 6
9 9 9 9 5 4 6 4 3 4 5 6 6 6 7 6 4 4 8 13 12 10 9 8 8 8 9 9 9 9 10 10 11 10 12 12 12 10 7 3 4 3 3 2 2 3 3 3 4 5 5 5 6 6
Wind_Direction
320 320 328 335 339 339 345 349 352 2 2 17 52 103 123 116 99 88 11 57 63 18 68 43 69 281 193 284 312 14 282 331 17 288 335 359 327 348 256 270 307 303 263 225 237 247 251 60 309 272 21 318 317 317
310 313 324 332 336 337 344 348 350 2 8 22 47 100 152 129 104 78 352 329 11 270 44 45 12 28 178 231 254 338 35 15 352 329 358 32 317 321 323 357 339 290 357 317 283 241 201 317 294 296 294 295 298 300
302 306 320 329 333 333 341 346 348 358 9 30 68 103 135 144 125 107 1 306 0 297 228 217 189 168 123 191 186 301 32 349 327 302 318 5 289 2 326 352 324 351 359 304 315 265 290 319 305 319 332 289 286 281
298 298 316 326 329 330 334 342 347 1 355 14 42 74 118 135 35 54 353 294 341 307 282 180 158 175 166 169 163 199 273 313 297 294 293 222 282 342 327 314 274 314 302 277 270 292 331 258 341 316 309 295 288 282
290 293 312 322 324 324 324 334 340 349 348 348 342 343 335 332 335 281 236 273 298 318 317 311 179 227 179 203 208 235 272 305 269 265 212 124 310 268 266 275 10 253 292 301 296 307 292 290 301 303 295 290 283 280
274 291 308 318 319 320 312 315 328 322 323 324 324 319 306 310 333 39 308 215 269 323 288 261 183 182 205 210 230 247 256 267 279 296 86 282 250 253 252 294 88 40 336 330 289 327 319 314 313 311 305 296 288 275
263 290 304 312 317 319 313 295 310 310 297 301 308 310 294 287 284 245 284 214 294 301 257 276 155 182 196 216 227 215 242 247 272 242 261 184 206 208 285 330 2 166 270 321 356 352 355 349 336 332 329 325 306 285
264 287 300 310 319 321 316 295 285 302 299 289 292 299 294 287 292 289 268 268 293 238 253 265 292 162 183 181 194 215 208 221 253 238 244 191 143 5 282 318 342 8 291 286 353 9 8 4 355 358 2 4 6 358
263 286 299 314 320 323 317 297 282 292 297 289 287 294 300 263 236 244 273 283 243 207 234 221 265 325 175 151 165 162 174 219 246 221 271 110 81 215 270 337 339 1 350 346 16 10 9 19 12 6 13 15 17 13
266 286 300 314 318 323 311 298 290 299 302 290 294 343 247 221 266 292 287 219 219 215 224 242 255 268 202 169 182 165 187 230 221 234 244 146 232 242 20 338 352 350 359 350 1 15 11 21 13 14 17 17 17 16
269 288 301 312 313 311 293 294 295 295 306 345 248 236 257 281 295 242 246 221 185 232 215 228 241 292 225 226 199 201 167 240 248 177 209 226 258 54 14 348 344 357 359 356 360 5 21 15 16 4 9 16 22 27
274 291 306 311 304 289 267 267 294 279 238 245 258 303 290 241 226 244 228 188 203 252 90 287 3 250 289 236 225 176 188 253 269 171 149 278 229 75 11 336 345 350 345 4 359 6 11 16 8 18 13 22 24 45
281 300 314 318 303 264 222 230 311 310 296 307 253 231 230 200 261 234 256 64 178 148 267 331 319 273 170 230 279 111 234 205 194 151 210 235 107 64 6 342 336 351 345 357 11 15 17 18 25 30 24 28 23 36
293 308 316 316 303 210 208 232 306 329 293 251 201 247 240 216 228 56 359 324 55 334 326 259 270 6 20 71 255 247 230 242 65 34 352 77 38 34 0 333 336 359 343 360 11 21 24 24 32 46 38 31 32 38
311 316 308 243 242 251 255 261 283 301 233 257 249 250 234 7 350 342 303 33 353 353 287 287 91 142 208 7 276 335 278 48 215 300 71 85 38 30 357 346 338 355 334 357 2 11 10 22 29 34 44 42 36 39
330 324 268 268 289 298 288 275 263 196 245 245 247 259 313 335 9 344 9 22 359 339 269 259 121 256 292 340 268 288 11 1 24 336 60 52 20 360 349 340 330 325 329 2 357 359 356 3 13 31 30 36 42 46
340 288 318 315 307 302 263 132 172 225 244 236 219 47 285 6 17 343 9 15 351 332 9 17 329 35 331 277 14 20 9 345 22 9 22 13 4 331 333 330 327 328 297 7 344 346 356 349 344 13 37 40 48 42
1 318 331 301 310 331 250 185 235 250 247 285 264 1 11 29 3 35 27 8 340 11 50 42 25 54 229 352 18 350 21 337 331 343 43 8 6 333 322 329 323 307 319 349 320 336 341 343 342 2 26 50 51 62
322 305 320 266 305 351 243 229 223 273 284 354 28 32 41 37 53 49 30 42 50 60 85 14 111 323 10 2 343 358 10 338 354 2 23 126 330 354 325 325 347 304 283 282 310 319 356 357 358 4 13 33 49 54
314 320 282 300 264 236 249 208 226 270 305 0 23 27 63 75 59 6 26 40 27 23 307 45 13 80 13 12 354 341 345 342 335 326 248 195 312 46 318 335 319 313 317 301 339 287 2 354 46 11 15 35 33 56
325 307 307 271 229 221 277 292 247 329 334 9 57 31 49 41 31 55 8 37 18 21 39 21 39 35 10 3 1 339 356 343 337 343 353 335 336 344 350 347 6 342 341 326 109 14 339 17 38 64 28 73 51 66
294 309 251 304 220 220 261 265 300 320 273 274 356 87 120 49 34 34 4 27 40 26 23 32 16 1 78 5 332 313 343 322 299 315 297 303 323 2 16 353 338 327 328 336 316 44 341 28 48 16 100 44 65 52
329 298 237 223 244 238 265 284 277 2 350 333 298 85 28 58 25 332 153 53 75 51 31 32 320 268 303 304 283 298 286 314 323 303 334 342 29 22 345 348 344 339 350 352 354 359 17 356 13 313 44 36 30 47
286 219 236 226 212 256 176 240 182 278 323 355 28 15 29 30 351 327 27 65 48 284 180 1 330 343 272 258 286 32 346 320 316 322 357 11 30 2 10 360 1 356 3 341 342 31 33 51 74 74 338 338 72 69
244 217 217 236 235 226 222 188 223 223 7 4 338 44 54 194 283 14 349 46 37 351 330 313 313 329 328 355 340 22 9 340 338 355 15 32 10 7 23 30 24 20 12 31 22 13 352 301 275 142 103 66 75 88
257 196 204 217 166 232 145 241 209 309 11 298 65 67 301 332 317 11 30 356 350 341 337 333 332 333 5 360 352 358 355 358 22 52 41 18 30 29 37 39 56 47 45 39 38 48 63 113 117 79 91 81 51 44
246 198 199 222 285 186 247 250 292 299 272 257 200 148 263 302 5 56 72 337 311 330 315 327 339 346 6 23 26 28 31 42 70 85 76 64 56 56 41 45 72 75 48 44 53 55 69 84 84 94 82 74 68 60
246 256 216 188 213 225 281 299 252 238 227 90 308 242 288 354 15 76 73 156 150 155 148 35 83 84 90 76 57 53 66 83 94 93 83 71 64 69 67 66 76 99 81 111 48 62 53 59 87 68 59 63 41 16
226 205 220 211 221 214 224 243 264 224 20 272 266 326 321 136 185 177 167 160 151 137 139 137 127 108 84 65 56 92 173 176 133 113 268 117 90 77 80 81 68 80 77 44 84 109 84 77 73 52 41 37 37 21
217 193 208 217 209 240 213 246 321 356 293 293 288 254 210 201 191 183 181 180 180 184 181 181 172 193 135 79 76 88 85 100 181 209 189 137 136 127 111 99 90 84 81 101 96 56 46 49 33 32 22 6 356 350
172 191 237 252 231 195 348 261 266 268 263 256 247 276 293 183 218 208 203 200 196 186 171 165 163 163 165 162 147 143 125 116 121 122 125 130 135 137 130 112 96 96 85 85 83 55 41 40 17 8 16 15 16 9
200 221 231 246 232 129 176 241 244 250 238 226 243 243 219 234 243 212 207 198 198 195 195 181 178 176 157 161 167 157 159 152 126 128 119 135 141 137 123 113 115 117 112 100 79 56 38 25 29 28 23 30 33 31
214 220 238 253 205 190 197 216 240 259 239 248 254 241 230 244 288 175 191 190 194 198 188 179 181 166 153 143 150 151 148 180 190 187 172 164 161 154 130 142 136 121 104 94 83 68 64 59 53 53 49 41 32 22